STARLINK-32446, 61262

Orbit data source: Space-Track

STARLINK-32446, 61262 is a payload satellite owned by SpaceX/Seattle (US) in LEO that was launched on Wed, 25 Sep 2024 UTC via an FALCON 9 launch vehicle from the Air Force Western Test Range (AFWTR). Payload-class satellites include a variety of spacecraft equipped with specific instruments for various scientific and technological missions. These include communications satellites like Starlink; space stations such as the ISS; scientific satellites like the Hubble; Earth observation satellites from companies like Planet Labs, Umbra, and HawkEye 360; GPS; miniature CubeSats for education and research; and military/defense satellites.

Loading next visibility...
Identifier
61262, 2024-175V
Orbit
LEO
Country
Flag of USUS
Related business
Manufacturer
SpaceX/Seattle
Mission
Operational Commercial Communications
Bus & Motor
STARLINK V2M, Unknown motor
Mass
730 kg wet, ~700 kg dry
Launch date (UTC)
2024-09-25 (1 year ago)
Launch vehicle
FALCON 9
Launch site
Air Force Western Test Range (AFWTR)
Object type
Payload
Rocket body
Debris
Shape & HBR
Box + 2 Pan, 17.7 m
Radar Cross Section
33.884 m², Large (>1 m²)

Expand to show TLE details & history
Last TLE update: 20 hours ago

TLE from 20 hours ago
0 STARLINK-32446
1 61262U 24175V   25305.61837031  .00000559  00000-0  30997-4 0  9991
2 61262  53.1607  69.0378 0001366  73.0453 287.0698 15.30193760 61846
Epoch: 2025-11-01T14:50Z
TLE epoch observation values (Epoch: 2025-11-01T14:50:27.194Z)
Latitude
0.00001°
Longitude
165.27864°
Altitude
475.859 km
Speed
7.629 km/s
True Right ascension
04h 36m 09s
True Declination
0° 00' 00"
Sunlit
Object was in full shadow at epoch
Visualization orbit readout
Latitude
Unknown
Longitude
Unknown
Altitude
Unknown
Speed
Unknown
Apparent Right ascension
Unknown
Apparent Declination
Unknown
Sunlit
N/A
Visualization observer readout
Local Sidereal Time
07:05:31
Azimuth
Unknown
Elevation
Unknown
Doppler factor
Unknown
Orbital elements
Apogee altitude
476.426 km
Perigee altitude
474.554 km
Semi-major axis
6,853.627 km
Eccentricity
0.00014
Inclination
53.1607°
RAAN
69.0378°
Arg. of periapsis
73.0453°
True anomaly
287.05484°
Mean anomaly
287.0698°
Eccentric anomaly
287.06232°
Mean motion
3.82527 °/min
Orbital period
94.11 mins
BSTAR
0.000030997
Loading maneuver chart data...
Computing Atmospheric mass density...
Loading historical data...
Loading historical data...
Loading historical data...
Loading historical data...
Loading historical data...
Loading historical data...
Loading historical data...

Documentation

Showing up to 5 results
|